THY2150 LTFM-LTFE

Flight info

Callsign THY2150
Flight time 0h 55m
Altitude 38000
Route RATVU1G/17R RATVU UT35 NUMTI DCT KULAR/N0474F370 UT44 LAVTA UW87 KAVAK
Aircraft A333/H-SDE3GHIJ2J3J5M1RVWXY/LB2D1

Departure

Time 2026-04-26 11:43
Airport İstanbul Airport (LTFM)

Arrival

Time 2026-04-26 12:39
Airport Milas Bodrum International Airport (LTFE)
Time Latitude Longitude Altitude Speed Heading
2026-04-26 11:27 41.26167 28.73612 337 ft 0 kts 107°
2026-04-26 11:30 41.26168 28.73605 337 ft 2 kts 109°
2026-04-26 11:30 41.26172 28.73592 337 ft 1 kts 108°
2026-04-26 11:31 41.26175 28.73574 337 ft 2 kts 90°
2026-04-26 11:31 41.26173 28.73554 337 ft 2 kts 72°
2026-04-26 11:31 41.26167 28.73536 337 ft 2 kts 55°
2026-04-26 11:31 41.26158 28.73521 337 ft 2 kts 38°
2026-04-26 11:32 41.26145 28.73511 337 ft 2 kts 21°
2026-04-26 11:32 41.26138 28.73507 337 ft 1 kts 13°
2026-04-26 11:32 41.26136 28.73506 337 ft 0 kts 13°
2026-04-26 11:32 41.26136 28.73507 337 ft 0 kts 13°
2026-04-26 11:34 41.26181 28.73482 337 ft 14 kts 312°
2026-04-26 11:34 41.26208 28.73341 337 ft 15 kts 266°
2026-04-26 11:34 41.26209 28.73270 337 ft 6 kts 269°
2026-04-26 11:34 41.26208 28.73204 337 ft 11 kts 269°
2026-04-26 11:35 41.26290 28.73118 337 ft 30 kts 359°
2026-04-26 11:35 41.26486 28.73109 337 ft 25 kts
2026-04-26 11:35 41.26680 28.73110 337 ft 29 kts 359°
2026-04-26 11:35 41.26766 28.73107 337 ft 13 kts 359°
2026-04-26 11:36 41.26894 28.73104 337 ft 21 kts
2026-04-26 11:36 41.27110 28.73100 337 ft 24 kts 359°
2026-04-26 11:36 41.27287 28.73098 337 ft 23 kts 359°
2026-04-26 11:36 41.27319 28.73097 337 ft 11 kts 359°
2026-04-26 11:37 41.27339 28.73097 337 ft 11 kts 359°
2026-04-26 11:37 41.27401 28.73096 337 ft 11 kts 359°
2026-04-26 11:37 41.27420 28.73096 337 ft 11 kts 359°
2026-04-26 11:37 41.27502 28.73093 337 ft 15 kts 359°
2026-04-26 11:38 41.27638 28.73091 337 ft 5 kts 359°
2026-04-26 11:38 41.27647 28.73090 337 ft 0 kts 359°
2026-04-26 11:38 41.27654 28.73090 337 ft 6 kts 359°
2026-04-26 11:38 41.27790 28.73053 337 ft 17 kts 333°
2026-04-26 11:39 41.27872 28.72993 337 ft 4 kts 334°
2026-04-26 11:39 41.27900 28.72975 337 ft 4 kts 337°
2026-04-26 11:39 41.27973 28.72968 337 ft 14 kts 359°
2026-04-26 11:39 41.28097 28.72966 337 ft 28 kts 360°
2026-04-26 11:40 41.28327 28.72962 337 ft 34 kts 359°
2026-04-26 11:40 41.28566 28.72957 337 ft 33 kts 359°
2026-04-26 11:40 41.28796 28.72954 337 ft 31 kts 358°
2026-04-26 11:40 41.29014 28.72948 337 ft 30 kts 359°
2026-04-26 11:41 41.29224 28.72944 337 ft 29 kts
2026-04-26 11:42 41.28855 28.72473 337 ft 106 kts 179°
2026-04-26 11:43 41.27856 28.72498 377 ft 175 kts 181°
2026-04-26 11:43 41.26515 28.72556 726 ft 206 kts 180°
2026-04-26 11:43 41.25114 28.72628 1271 ft 201 kts 179°
2026-04-26 11:43 41.23749 28.72687 1954 ft 189 kts 180°
2026-04-26 11:44 41.22485 28.72730 2465 ft 183 kts 180°
2026-04-26 11:44 41.21189 28.72796 2912 ft 190 kts 179°
2026-04-26 11:44 41.19863 28.72858 3330 ft 197 kts 180°
2026-04-26 11:44 41.18341 28.72803 3773 ft 240 kts 196°
2026-04-26 11:45 41.16783 28.71734 4509 ft 265 kts 223°
2026-04-26 11:45 41.15535 28.69942 5094 ft 273 kts 228°
2026-04-26 11:45 41.14167 28.68206 5958 ft 271 kts 226°
2026-04-26 11:45 41.12848 28.66459 6782 ft 270 kts 221°
2026-04-26 11:46 41.11125 28.65441 7528 ft 276 kts 191°
2026-04-26 11:46 41.09179 28.65643 8074 ft 291 kts 165°
2026-04-26 11:46 41.07252 28.66320 8746 ft 292 kts 172°
2026-04-26 11:46 41.05244 28.66755 9433 ft 295 kts 174°
2026-04-26 11:47 41.03210 28.67136 10149 ft 297 kts 175°
2026-04-26 11:47 41.01113 28.67511 10575 ft 311 kts 175°
2026-04-26 11:47 40.98895 28.67903 10846 ft 330 kts 175°
2026-04-26 11:47 40.96574 28.68312 11089 ft 348 kts 174°
2026-04-26 11:48 40.94089 28.68751 11303 ft 366 kts 174°
2026-04-26 11:48 40.91551 28.69197 11738 ft 376 kts 174°
2026-04-26 11:48 40.88958 28.69616 12430 ft 378 kts 175°
2026-04-26 11:48 40.86309 28.70034 12999 ft 383 kts 175°
2026-04-26 11:49 40.83672 28.70450 13521 ft 387 kts 175°
2026-04-26 11:49 40.80965 28.70899 14106 ft 390 kts 174°
2026-04-26 11:49 40.78303 28.71389 14663 ft 393 kts 173°
2026-04-26 11:49 40.75592 28.71909 15225 ft 397 kts 176°
2026-04-26 11:50 40.72811 28.72233 15816 ft 398 kts 176°
2026-04-26 11:50 40.70042 28.72625 16422 ft 400 kts 175°
2026-04-26 11:50 40.67277 28.73041 16991 ft 401 kts 175°
2026-04-26 11:50 40.64501 28.73469 17570 ft 402 kts 174°
2026-04-26 11:51 40.61726 28.73901 18172 ft 403 kts 174°
2026-04-26 11:51 40.58965 28.74334 18758 ft 404 kts 174°
2026-04-26 11:51 40.56182 28.74825 19317 ft 404 kts 169°
2026-04-26 11:51 40.53569 28.76145 19825 ft 406 kts 150°
2026-04-26 11:52 40.51359 28.78433 20339 ft 407 kts 136°
2026-04-26 11:52 40.49977 28.80100 20717 ft 407 kts 137°
2026-04-26 11:52 40.47189 28.83392 21475 ft 406 kts 138°
2026-04-26 11:52 40.45090 28.85851 22019 ft 405 kts 137°
2026-04-26 11:53 40.42976 28.88321 22554 ft 404 kts 137°
2026-04-26 11:53 40.40867 28.90780 23085 ft 406 kts 137°
2026-04-26 11:53 40.38766 28.93230 23710 ft 403 kts 137°
2026-04-26 11:54 40.34534 28.98154 24609 ft 421 kts 137°
2026-04-26 11:54 40.32300 29.00715 24759 ft 439 kts 141°
2026-04-26 11:54 40.29620 29.02693 25295 ft 447 kts 159°
2026-04-26 11:54 40.26644 29.03818 26178 ft 445 kts 164°
2026-04-26 11:55 40.23677 29.04887 26983 ft 445 kts 164°
2026-04-26 11:55 40.20671 29.05897 27764 ft 444 kts 171°
2026-04-26 11:55 40.17577 29.05894 28527 ft 443 kts 186°
2026-04-26 11:55 40.14498 29.05448 28964 ft 446 kts 186°
2026-04-26 11:56 40.13484 29.05317 29038 ft 448 kts 185°
2026-04-26 11:56 40.10344 29.04930 29387 ft 453 kts 185°
2026-04-26 11:56 40.07182 29.04565 29829 ft 455 kts 185°
2026-04-26 11:56 40.04029 29.04232 30483 ft 450 kts 183°
2026-04-26 11:57 40.00923 29.03942 31175 ft 444 kts 185°
2026-04-26 11:57 39.97860 29.03486 31511 ft 447 kts 186°
2026-04-26 11:57 39.94718 29.03071 31858 ft 450 kts 185°
2026-04-26 11:57 39.91600 29.02684 32086 ft 456 kts 185°
2026-04-26 11:58 39.88387 29.02297 32019 ft 468 kts 185°
2026-04-26 11:58 39.81728 29.01502 32052 ft 485 kts 185°
2026-04-26 11:59 39.75078 29.00713 32041 ft 474 kts 185°
2026-04-26 11:59 39.68514 28.99864 32050 ft 473 kts 186°
2026-04-26 12:00 39.61965 28.98854 32049 ft 475 kts 187°
2026-04-26 12:00 39.55402 28.98053 32035 ft 474 kts 177°
2026-04-26 12:01 39.48802 28.97781 32050 ft 474 kts 184°
2026-04-26 12:01 39.42174 28.97033 32052 ft 474 kts 185°
2026-04-26 12:02 39.35551 28.96253 32060 ft 476 kts 184°
2026-04-26 12:02 39.28989 28.95478 32065 ft 475 kts 184°
2026-04-26 12:03 39.22362 28.94697 32075 ft 475 kts 184°
2026-04-26 12:03 39.15795 28.93924 32070 ft 475 kts 184°
2026-04-26 12:04 39.09210 28.93151 32070 ft 476 kts 184°
2026-04-26 12:04 39.02572 28.92372 32062 ft 475 kts 184°
2026-04-26 12:05 38.96017 28.91606 32056 ft 476 kts 184°
2026-04-26 12:05 38.89365 28.90829 32050 ft 476 kts 184°
2026-04-26 12:06 38.82783 28.90062 32039 ft 476 kts 184°
2026-04-26 12:06 38.76179 28.89293 32047 ft 476 kts 184°
2026-04-26 12:07 38.69584 28.88527 32027 ft 477 kts 184°
2026-04-26 12:07 38.62981 28.87761 32029 ft 479 kts 184°
2026-04-26 12:08 38.56327 28.86991 32020 ft 482 kts 184°
2026-04-26 12:08 38.49597 28.86215 32019 ft 482 kts 184°
2026-04-26 12:09 38.42902 28.85443 32019 ft 481 kts 184°
2026-04-26 12:09 38.36211 28.84673 32009 ft 481 kts 184°
2026-04-26 12:10 38.29513 28.83903 32001 ft 482 kts 183°
2026-04-26 12:10 38.22837 28.83138 31987 ft 481 kts 183°
2026-04-26 12:11 38.16190 28.82377 31977 ft 481 kts 183°
2026-04-26 12:11 38.09507 28.81615 31973 ft 482 kts 183°
2026-04-26 12:12 38.02865 28.80858 31964 ft 481 kts 183°
2026-04-26 12:12 37.96178 28.80097 31972 ft 481 kts 183°
2026-04-26 12:13 37.89513 28.79339 31986 ft 481 kts 183°
2026-04-26 12:13 37.82864 28.78585 31989 ft 480 kts 183°
2026-04-26 12:14 37.76200 28.77831 31997 ft 481 kts 183°
2026-04-26 12:14 37.69580 28.77083 31997 ft 479 kts 183°
2026-04-26 12:15 37.62948 28.76336 31994 ft 480 kts 183°
2026-04-26 12:15 37.56266 28.75584 31458 ft 485 kts 183°
2026-04-26 12:15 37.52880 28.75203 30558 ft 487 kts 183°
2026-04-26 12:16 37.49642 28.74835 30401 ft 458 kts 183°
2026-04-26 12:16 37.46518 28.74485 29282 ft 449 kts 182°
2026-04-26 12:16 37.43428 28.74143 27981 ft 442 kts 183°
2026-04-26 12:16 37.40486 28.73757 27928 ft 408 kts 189°
2026-04-26 12:17 37.37908 28.72641 27925 ft 381 kts 208°
2026-04-26 12:17 37.35849 28.70682 27367 ft 372 kts 226°
2026-04-26 12:17 37.34301 28.68132 26570 ft 368 kts 240°
2026-04-26 12:17 37.33067 28.65364 25821 ft 364 kts 243°
2026-04-26 12:18 37.31930 28.62518 25087 ft 359 kts 245°
2026-04-26 12:18 37.30881 28.59741 24364 ft 354 kts 246°
2026-04-26 12:18 37.29846 28.56936 23615 ft 350 kts 246°
2026-04-26 12:18 37.28835 28.54169 22743 ft 351 kts 246°
2026-04-26 12:19 37.27835 28.51413 21949 ft 349 kts 246°
2026-04-26 12:19 37.26838 28.48666 21228 ft 346 kts 247°
2026-04-26 12:19 37.25844 28.45923 20639 ft 344 kts 246°
2026-04-26 12:19 37.24865 28.43227 19812 ft 346 kts 246°
2026-04-26 12:20 37.23864 28.40472 18891 ft 346 kts 246°
2026-04-26 12:20 37.22873 28.37746 18040 ft 344 kts 246°
2026-04-26 12:20 37.21887 28.35035 17070 ft 346 kts 246°
2026-04-26 12:20 37.20892 28.32300 15898 ft 352 kts 246°
2026-04-26 12:21 37.19883 28.29533 14723 ft 356 kts 246°
2026-04-26 12:21 37.18869 28.26749 13572 ft 357 kts 246°
2026-04-26 12:21 37.17827 28.23941 12428 ft 356 kts 242°
2026-04-26 12:21 37.16637 28.21304 11853 ft 335 kts 250°
2026-04-26 12:22 37.15882 28.18706 11706 ft 307 kts 248°
2026-04-26 12:22 37.15044 28.16327 11477 ft 289 kts 246°
2026-04-26 12:22 37.14303 28.14071 11208 ft 271 kts 259°
2026-04-26 12:22 37.14247 28.11816 10952 ft 255 kts 278°
2026-04-26 12:23 37.14221 28.09640 10549 ft 253 kts 256°
2026-04-26 12:23 37.13385 28.07704 10064 ft 255 kts 225°
2026-04-26 12:23 37.11892 28.06548 9592 ft 254 kts 194°
2026-04-26 12:23 37.10175 28.06472 9144 ft 250 kts 163°
2026-04-26 12:24 37.08671 28.07477 8676 ft 243 kts 131°
2026-04-26 12:24 37.07801 28.09230 8242 ft 236 kts 107°
2026-04-26 12:24 37.07251 28.11125 7989 ft 228 kts 106°
2026-04-26 12:25 37.06178 28.14872 7936 ft 227 kts 106°
2026-04-26 12:25 37.05642 28.16750 7622 ft 229 kts 106°
2026-04-26 12:25 37.05121 28.18581 7555 ft 221 kts 106°
2026-04-26 12:25 37.04616 28.20354 7563 ft 211 kts 106°
2026-04-26 12:26 37.04388 28.22090 7566 ft 196 kts 75°
2026-04-26 12:26 37.04985 28.23649 7975 ft 213 kts 44°
2026-04-26 12:26 37.06279 28.24742 8474 ft 249 kts 25°
2026-04-26 12:26 37.08160 28.25234 8499 ft 308 kts
2026-04-26 12:27 37.10217 28.24696 8327 ft 295 kts 337°
2026-04-26 12:27 37.11815 28.23220 7898 ft 283 kts 311°
2026-04-26 12:27 37.12859 28.21182 7608 ft 273 kts 302°
2026-04-26 12:27 37.13538 28.19050 7536 ft 262 kts 282°
2026-04-26 12:28 37.13745 28.16847 7360 ft 244 kts 277°
2026-04-26 12:28 37.13830 28.14830 7147 ft 225 kts 275°
2026-04-26 12:28 37.13925 28.12947 6953 ft 208 kts 288°
2026-04-26 12:28 37.14336 28.11252 6748 ft 196 kts 290°
2026-04-26 12:29 37.14710 28.09695 6661 ft 175 kts 290°
2026-04-26 12:29 37.14925 28.08814 6651 ft 159 kts 291°
2026-04-26 12:29 37.14937 28.08765 6645 ft 158 kts 291°
2026-04-26 12:30 37.14946 28.08727 6640 ft 158 kts 291°
2026-04-26 12:30 37.15068 28.08228 6553 ft 154 kts 291°
2026-04-26 12:31 37.15699 28.05512 6949 ft 161 kts 289°
2026-04-26 12:31 37.16017 28.04177 7040 ft 157 kts 292°
2026-04-26 12:31 37.16329 28.02899 7134 ft 154 kts 291°
2026-04-26 12:31 37.16644 28.01585 6995 ft 157 kts 291°
2026-04-26 12:32 37.16957 28.00303 6692 ft 152 kts 291°
2026-04-26 12:32 37.17265 27.99029 6450 ft 151 kts 291°
2026-04-26 12:32 37.17888 27.96468 5959 ft 157 kts 291°
2026-04-26 12:33 37.18205 27.95172 5703 ft 156 kts 291°
2026-04-26 12:33 37.18517 27.93880 5459 ft 155 kts 290°
2026-04-26 12:33 37.18830 27.92580 5181 ft 160 kts 290°
2026-04-26 12:33 37.19147 27.91274 4910 ft 154 kts 290°
2026-04-26 12:34 37.19455 27.90004 4623 ft 152 kts 290°
2026-04-26 12:34 37.19766 27.88730 4345 ft 152 kts 289°
2026-04-26 12:34 37.20073 27.87460 4071 ft 153 kts 289°
2026-04-26 12:34 37.20376 27.86201 3796 ft 151 kts 290°
2026-04-26 12:35 37.20676 27.84953 3521 ft 150 kts 289°
2026-04-26 12:35 37.20981 27.83698 3253 ft 150 kts 289°
2026-04-26 12:35 37.21281 27.82454 2992 ft 149 kts 290°
2026-04-26 12:35 37.21580 27.81212 2728 ft 147 kts 289°
2026-04-26 12:36 37.21873 27.79991 2468 ft 147 kts 288°
2026-04-26 12:36 37.22170 27.78771 2213 ft 143 kts 288°
2026-04-26 12:36 37.22459 27.77575 1963 ft 145 kts 286°
2026-04-26 12:36 37.22749 27.76364 1719 ft 144 kts 286°
2026-04-26 12:37 37.23037 27.75157 1474 ft 144 kts 286°
2026-04-26 12:37 37.23323 27.73979 1233 ft 143 kts 285°
2026-04-26 12:37 37.23605 27.72798 990 ft 142 kts 286°
2026-04-26 12:37 37.23882 27.71602 733 ft 142 kts 285°
2026-04-26 12:38 37.24162 27.70410 484 ft 143 kts 287°
2026-04-26 12:38 37.24485 27.69240 249 ft 141 kts 285°
2026-04-26 12:38 37.24744 27.68070 43 ft 144 kts 286°
2026-04-26 12:38 37.24968 27.67128 31 ft 55 kts 285°
2026-04-26 12:39 37.25045 27.66799 28 ft 37 kts 286°
2026-04-26 12:39 37.25130 27.66454 27 ft 47 kts 286°
2026-04-26 12:39 37.25207 27.66130 24 ft 28 kts 287°
2026-04-26 12:39 37.25255 27.65872 22 ft 33 kts 275°
2026-04-26 12:40 37.25232 27.65675 21 ft 0 kts 255°
2026-04-26 12:40 37.25232 27.65674 21 ft 0 kts 255°
2026-04-26 12:40 37.25230 27.65666 21 ft 1 kts 255°
2026-04-26 12:40 37.25211 27.65581 21 ft 17 kts 244°
2026-04-26 12:41 37.25144 27.65636 21 ft 15 kts 105°
2026-04-26 12:41 37.25118 27.65766 21 ft 14 kts 107°
2026-04-26 12:41 37.25083 27.65909 21 ft 14 kts 107°
2026-04-26 12:41 37.25001 27.65948 21 ft 14 kts 193°
2026-04-26 12:42 37.24925 27.65966 22 ft 10 kts 117°
2026-04-26 12:42 37.24904 27.66058 23 ft 15 kts 105°
2026-04-26 12:42 37.24867 27.66229 25 ft 20 kts 108°
2026-04-26 12:42 37.24822 27.66397 28 ft 19 kts 110°
2026-04-26 12:43 37.24758 27.66527 29 ft 13 kts 117°
2026-04-26 12:43 37.24743 27.66624 29 ft 10 kts 107°
2026-04-26 12:43 37.24706 27.66779 30 ft 43 kts 107°
2026-04-26 12:43 37.24611 27.67169 35 ft 17 kts 112°
2026-04-26 12:44 37.24601 27.67261 33 ft 15 kts 106°
2026-04-26 12:44 37.24564 27.67390 33 ft 5 kts 110°
2026-04-26 12:44 37.24532 27.67504 34 ft 23 kts 108°
2026-04-26 12:44 37.24480 27.67528 34 ft 3 kts 196°
2026-04-26 12:45 37.24460 27.67520 35 ft 4 kts 195°
2026-04-26 12:45 37.24445 27.67515 35 ft 0 kts 196°